TimeEDT,TemperatureF,Dew PointF,Humidity,Sea Level PressureIn,VisibilityMPH,Wind Direction,Wind SpeedMPH,Gust SpeedMPH,PrecipitationIn,Events,Conditions,WindDirDegrees,DateUTC
12:54 AM,61.0,57.0,87,30.24,10.0,Calm,Calm,-,N/A,,Clear,0,2013-08-25 04:54:00
1:54 AM,60.1,57.0,90,30.23,10.0,Calm,Calm,-,N/A,,Clear,0,2013-08-25 05:54:00
2:54 AM,57.9,57.0,97,30.23,10.0,Calm,Calm,-,N/A,,Clear,0,2013-08-25 06:54:00
3:54 AM,59.0,55.9,90,30.24,10.0,Calm,Calm,-,N/A,,Clear,0,2013-08-25 07:54:00
4:54 AM,57.9,55.9,93,30.25,10.0,Calm,Calm,-,N/A,,Clear,0,2013-08-25 08:54:00
5:54 AM,57.9,55.9,93,30.26,10.0,Calm,Calm,-,N/A,,Clear,0,2013-08-25 09:54:00
6:54 AM,57.0,55.9,96,30.27,10.0,Calm,Calm,-,N/A,,Clear,0,2013-08-25 10:54:00
7:54 AM,59.0,55.9,90,30.29,10.0,Calm,Calm,-,N/A,,Clear,0,2013-08-25 11:54:00
8:54 AM,66.0,57.9,75,30.30,10.0,Calm,Calm,-,N/A,,Clear,0,2013-08-25 12:54:00
9:54 AM,72.0,60.1,66,30.30,10.0,South,3.5,-,N/A,,Clear,180,2013-08-25 13:54:00
10:54 AM,78.1,61.0,56,30.29,10.0,Variable,4.6,-,N/A,,Clear,0,2013-08-25 14:54:00
11:54 AM,81.0,61.0,50,30.29,10.0,South,6.9,-,N/A,,Clear,180,2013-08-25 15:54:00
12:54 PM,82.9,60.1,46,30.28,10.0,South,6.9,-,N/A,,Clear,190,2013-08-25 16:54:00
1:54 PM,84.9,57.9,40,30.26,10.0,West,6.9,-,N/A,,Clear,270,2013-08-25 17:54:00
2:54 PM,86.0,57.9,38,30.24,10.0,SSW,5.8,-,N/A,,Clear,210,2013-08-25 18:54:00
3:54 PM,86.0,57.9,38,30.23,10.0,SW,6.9,-,N/A,,Clear,230,2013-08-25 19:54:00
4:54 PM,86.0,57.9,38,30.22,10.0,SW,9.2,-,N/A,,Clear,230,2013-08-25 20:54:00
5:54 PM,84.9,59.0,41,30.21,10.0,SSW,6.9,-,N/A,,Clear,210,2013-08-25 21:54:00
6:54 PM,84.0,60.1,44,30.20,10.0,SSW,4.6,-,N/A,,Clear,210,2013-08-25 22:54:00
7:54 PM,81.0,62.1,52,30.20,10.0,SSW,3.5,-,N/A,,Clear,200,2013-08-25 23:54:00
8:54 PM,73.0,64.0,73,30.20,10.0,Calm,Calm,-,N/A,,Clear,0,2013-08-26 00:54:00
9:54 PM,70.0,63.0,78,30.20,10.0,Calm,Calm,-,N/A,,Clear,0,2013-08-26 01:54:00
10:54 PM,68.0,63.0,84,30.21,10.0,Calm,Calm,-,N/A,,Clear,0,2013-08-26 02:54:00
11:54 PM,66.0,62.1,87,30.22,10.0,Calm,Calm,-,N/A,,Clear,0,2013-08-26 03:54:00